Location: Ffald-y-Brenin
(52.0833°N, 4.0000°W)
Time: 04:44:46
(UTC+00:00)

Cosmos 2369 Rocket - Pass Details

Date: 18 February 2020
Orbit: 827 x 854 km, 71.0° (Epoch: 02 April)

Event Time Altitude Azimuth Distance (km) Brightness Sun altitude
Exits shadow 02:52:59 19° 17° (NNE) 1,923 4.4 -40.6°
Maximum altitude 02:54:03 20° 31° (NNE) 1,875 4.5 -40.4°
Drops below altitude 10° 02:58:12 10° 78° (ENE) 2,491 5.2 -39.9°
Sets 03:01:21 0° 95° (E) 3,424 5.9 -39.6°
